| time (UTC) | temp F | wind direction | speed MPH | gust MPH | rain 1hr in | rain 24hr in | rain mn in | humidity % | barometer mb |
| 20260510203057 | 57 | 182 | 0.0 | 0.0 | 0.00 | 0.00 | 0.00 | 89 | 1006.4 |
| 20260510201601 | 57 | 182 | 0.0 | 0.0 | 0.00 | 0.00 | 0.00 | 89 | 1006.6 |
| 20260510200057 | 57 | 182 | 0.0 | 0.0 | 0.00 | 0.00 | 0.00 | 88 | 1006.5 |
| 20260510194604 | 57 | 182 | 0.0 | 0.0 | 0.00 | 0.00 | 0.00 | 88 | 1006.5 |
| 20260510193057 | 58 | 182 | 0.0 | 0.0 | 0.00 | 0.00 | 0.00 | 87 | 1006.4 |
| 20260510191555 | 57 | 182 | 0.0 | 0.0 | 0.00 | 0.00 | 0.00 | 86 | 1006.3 |
| 20260510190103 | 58 | 195 | 0.0 | 4.0 | 0.00 | 0.00 | 0.00 | 82 | 1006.1 |
| 20260510184553 | 60 | 186 | 0.0 | 2.0 | 0.00 | 0.00 | 0.00 | 78 | 1006.0 |
| 20260510183048 | 60 | 203 | 0.0 | 3.0 | 0.00 | 0.00 | 0.00 | 77 | 1005.7 |
| 20260510181603 | 60 | 163 | 1.0 | 7.0 | 0.00 | 0.00 | 0.00 | 76 | 1005.4 |
| 20260510180052 | 60 | 191 | 2.0 | 9.0 | 0.00 | 0.00 | 0.00 | 74 | 1005.1 |
| 20260510174557 | 61 | 201 | 2.0 | 9.0 | 0.00 | 0.00 | 0.00 | 73 | 1004.9 |
| 20260510173049 | 61 | 213 | 1.0 | 7.0 | 0.00 | 0.00 | 0.00 | 72 | 1004.7 |
| 20260510171558 | 63 | 170 | 0.0 | 4.0 | 0.00 | 0.00 | 0.00 | 68 | 1004.4 |
| 20260510170048 | 64 | 190 | 0.0 | 0.0 | 0.00 | 0.00 | 0.00 | 62 | 1004.5 |
| 20260510164542 | 64 | 189 | 0.0 | 0.0 | 0.00 | 0.00 | 0.00 | 65 | 1004.6 |
| 20260510163049 | 64 | 190 | 0.0 | 0.0 | 0.00 | 0.00 | 0.00 | 68 | 1004.7 |
| 20260510161538 | 64 | 190 | 0.0 | 2.0 | 0.00 | 0.00 | 0.00 | 68 | 1005.0 |
| 20260510160041 | 64 | 208 | 0.0 | 3.0 | 0.00 | 0.00 | 0.00 | 67 | 1005.1 |
| 20260510154535 | 64 | 213 | 0.0 | 2.0 | 0.00 | 0.00 | 0.00 | 65 | 1005.2 |
| 20260510153040 | 64 | 212 | 0.0 | 5.0 | 0.00 | 0.00 | 0.00 | 64 | 1005.3 |
| 20260510151537 | 65 | 205 | 0.0 | 5.0 | 0.00 | 0.00 | 0.00 | 65 | 1005.5 |
| 20260510150035 | 65 | 191 | 0.0 | 5.0 | 0.00 | 0.00 | 0.00 | 63 | 1005.6 |
| 20260510144538 | 65 | 179 | 0.0 | 3.0 | 0.00 | 0.00 | 0.00 | 64 | 1005.5 |
| 20260510143033 | 64 | 192 | 0.0 | 4.0 | 0.00 | 0.00 | 0.00 | 65 | 1005.8 |
| 20260510141534 | 64 | 175 | 1.0 | 5.0 | 0.00 | 0.00 | 0.00 | 64 | 1005.8 |
| 20260510140134 | 64 | 180 | 1.0 | 7.0 | 0.00 | 0.00 | 0.00 | 63 | 1005.7 |
| 20260510134530 | 66 | 166 | 1.0 | 7.0 | 0.00 | 0.00 | 0.00 | 59 | 1005.6 |
| 20260510133029 | 67 | 176 | 1.0 | 8.0 | 0.00 | 0.00 | 0.00 | 53 | 1005.5 |
| 20260510131528 | 67 | 134 | 0.0 | 14.0 | 0.00 | 0.00 | 0.00 | 44 | 1005.5 |
| 20260510130028 | 67 | 49 | 0.0 | 7.0 | 0.00 | 0.00 | 0.00 | 44 | 1005.4 |
| 20260510124527 | 67 | 178 | 2.0 | 9.0 | 0.00 | 0.00 | 0.00 | 44 | 1005.3 |
| 20260510123026 | 67 | 317 | 1.0 | 15.0 | 0.00 | 0.00 | 0.00 | 43 | 1005.4 |
| 20260510121526 | 68 | 105 | 1.0 | 7.0 | 0.00 | 0.00 | 0.00 | 43 | 1005.3 |
| 20260510120025 | 69 | 111 | 1.0 | 4.0 | 0.00 | 0.00 | 0.00 | 44 | 1005.4 |
| 20260510114524 | 68 | 50 | 0.0 | 5.0 | 0.00 | 0.00 | 0.00 | 45 | 1005.4 |
| 20260510113028 | 67 | 24 | 2.0 | 11.0 | 0.00 | 0.00 | 0.00 | 44 | 1005.4 |
| 20260510111518 | 66 | 116 | 0.0 | 10.0 | 0.00 | 0.00 | 0.00 | 46 | 1005.8 |
| 20260510110030 | 67 | 132 | 0.0 | 12.0 | 0.00 | 0.00 | 0.00 | 48 | 1006.0 |
| 20260510104516 | 67 | 251 | 1.0 | 11.0 | 0.00 | 0.00 | 0.00 | 45 | 1005.9 |
| 20260510103015 | 67 | 65 | 2.0 | 11.0 | 0.00 | 0.00 | 0.00 | 44 | 1006.1 |
| 20260510101513 | 67 | 331 | 2.0 | 11.0 | 0.00 | 0.00 | 0.00 | 43 | 1006.2 |
| 20260510100012 | 67 | 67 | 2.0 | 8.0 | 0.00 | 0.00 | 0.00 | 43 | 1006.3 |
| 20260510094508 | 67 | 265 | 1.0 | 10.0 | 0.00 | 0.00 | 0.00 | 44 | 1006.5 |
| 20260510093005 | 67 | 71 | 1.0 | 11.0 | 0.00 | 0.00 | 0.00 | 43 | 1006.6 |
| 20260510091501 | 66 | 28 | 2.0 | 9.0 | 0.00 | 0.00 | 0.00 | 43 | 1006.7 |
| 20260510090101 | 66 | 148 | 1.0 | 5.0 | 0.00 | 0.00 | 0.00 | 44 | 1006.7 |
| 20260510084613 | 66 | 128 | 1.0 | 10.0 | 0.00 | 0.00 | 0.00 | 45 | 1007.0 |
| 20260510083058 | 66 | 78 | 0.0 | 1.0 | 0.00 | 0.00 | 0.00 | 46 | 1007.2 |
| 20260510081559 | 64 | 179 | 0.0 | 6.0 | 0.00 | 0.00 | 0.00 | 45 | 1007.4 |
| 20260510080104 | 64 | 257 | 0.0 | 1.0 | 0.00 | 0.00 | 0.00 | 46 | 1007.7 |
| 20260510074553 | 62 | 213 | 0.0 | 2.0 | 0.00 | 0.00 | 0.00 | 48 | 1007.7 |
| 20260510073053 | 62 | 263 | 0.0 | 0.0 | 0.00 | 0.00 | 0.00 | 50 | 1007.8 |
| 20260510071549 | 61 | 263 | 0.0 | 0.0 | 0.00 | 0.00 | 0.00 | 54 | 1008.1 |
| 20260510070051 | 60 | 267 | 0.0 | 0.0 | 0.00 | 0.00 | 0.00 | 54 | 1008.3 |
| 20260510064546 | 59 | 267 | 0.0 | 0.0 | 0.00 | 0.00 | 0.00 | 60 | 1008.3 |
| 20260510063038 | 59 | 268 | 0.0 | 0.0 | 0.00 | 0.00 | 0.00 | 59 | 1008.5 |
| 20260510061533 | 58 | 268 | 0.0 | 0.0 | 0.00 | 0.00 | 0.00 | 60 | 1008.6 |
| 20260510060038 | 58 | 268 | 0.0 | 0.0 | 0.00 | 0.00 | 0.00 | 59 | 1008.6 |
| 20260510054529 | 58 | 268 | 0.0 | 0.0 | 0.00 | 0.00 | 0.00 | 59 | 1008.6 |
| 20260510053027 | 59 | 268 | 0.0 | 0.0 | 0.00 | 0.00 | 0.00 | 56 | 1008.5 |
| 20260510051527 | 59 | 268 | 0.0 | 1.0 | 0.00 | 0.00 | 0.00 | 56 | 1008.6 |
| 20260510050026 | 59 | 268 | 0.0 | 0.0 | 0.00 | 0.00 | 0.00 | 51 | 1008.6 |
| 20260510044525 | 58 | 268 | 0.0 | 0.0 | 0.00 | 0.00 | 0.00 | 56 | 1008.7 |
| 20260510043021 | 58 | 268 | 0.0 | 0.0 | 0.00 | 0.00 | 0.00 | 55 | 1008.6 |
| 20260510041522 | 60 | 268 | 0.0 | 1.0 | 0.00 | 0.00 | 0.00 | 47 | 1008.8 |
| 20260510040016 | 61 | 268 | 1.0 | 3.0 | 0.00 | 0.00 | 0.00 | 41 | 1008.6 |
| 20260510034513 | 61 | 360 | 0.0 | 0.0 | 0.00 | 0.00 | 0.00 | 42 | 1008.7 |
| 20260510033010 | 61 | 5 | 0.0 | 4.0 | 0.00 | 0.00 | 0.00 | 41 | 1008.7 |
| 20260510031511 | 61 | 350 | 0.0 | 2.0 | 0.00 | 0.00 | 0.00 | 40 | 1008.7 |
| 20260510030008 | 62 | 69 | 0.0 | 0.0 | 0.00 | 0.00 | 0.00 | 40 | 1008.9 |
| 20260510024507 | 62 | 355 | 0.0 | 3.0 | 0.00 | 0.00 | 0.00 | 40 | 1008.8 |
| 20260510023005 | 62 | 311 | 0.0 | 6.0 | 0.00 | 0.00 | 0.00 | 40 | 1009.0 |
| 20260510021652 | 62 | 336 | 0.0 | 5.0 | 0.00 | 0.00 | 0.00 | 40 | 1009.1 |
| 20260510020003 | 62 | 347 | 0.0 | 4.0 | 0.00 | 0.00 | 0.00 | 40 | 1009.2 |
| 20260510014507 | 62 | 65 | 0.0 | 6.0 | 0.00 | 0.00 | 0.00 | 40 | 1009.4 |
| 20260510013005 | 63 | 65 | 0.0 | 10.0 | 0.00 | 0.00 | 0.00 | 40 | 1009.3 |
| 20260510011502 | 63 | 355 | 1.0 | 8.0 | 0.00 | 0.00 | 0.00 | 40 | 1009.1 |
| 20260510010003 | 63 | 360 | 0.0 | 8.0 | 0.00 | 0.00 | 0.00 | 41 | 1009.2 |
| 20260510004558 | 63 | 101 | 1.0 | 4.0 | 0.00 | 0.00 | 0.00 | 39 | 1009.2 |
| 20260510003105 | 64 | 57 | 0.0 | 3.0 | 0.00 | 0.00 | 0.00 | 39 | 1009.2 |
| 20260510001601 | 64 | 65 | 0.0 | 4.0 | 0.00 | 0.00 | 0.00 | 39 | 1009.2 |
| 20260510000054 | 65 | 107 | 0.0 | 8.0 | 0.00 | 0.00 | 0.00 | 37 | 1009.2 |
| 20260509234553 | 65 | 149 | 0.0 | 7.0 | 0.00 | 0.00 | 0.00 | 38 | 1009.5 |
| 20260509233052 | 65 | 300 | 0.0 | 6.0 | 0.00 | 0.00 | 0.00 | 39 | 1009.4 |
| 20260509231552 | 65 | 86 | 0.0 | 7.0 | 0.00 | 0.00 | 0.00 | 39 | 1009.6 |
| 20260509230052 | 65 | 119 | 0.0 | 5.0 | 0.00 | 0.00 | 0.00 | 39 | 1009.5 |
| 20260509224547 | 66 | 298 | 1.0 | 9.0 | 0.00 | 0.00 | 0.00 | 39 | 1009.4 |
| 20260509223051 | 66 | 94 | 0.0 | 4.0 | 0.00 | 0.00 | 0.00 | 39 | 1009.4 |
| 20260509221548 | 66 | 92 | 1.0 | 10.0 | 0.00 | 0.00 | 0.00 | 39 | 1009.5 |
| 20260509220048 | 66 | 348 | 1.0 | 12.0 | 0.00 | 0.00 | 0.00 | 40 | 1009.3 |
| 20260509214546 | 66 | 82 | 0.0 | 3.0 | 0.00 | 0.00 | 0.00 | 39 | 1009.4 |
| 20260509213055 | 67 | 113 | 0.0 | 4.0 | 0.00 | 0.00 | 0.00 | 39 | 1009.4 |
| 20260509211543 | 67 | 122 | 1.0 | 5.0 | 0.00 | 0.00 | 0.00 | 38 | 1009.2 |
| 20260509210048 | 68 | 257 | 0.0 | 9.0 | 0.00 | 0.00 | 0.00 | 38 | 1009.1 |
| 20260509204542 | 68 | 15 | 1.0 | 8.0 | 0.00 | 0.00 | 0.00 | 38 | 1009.1 |